Wind_Speed
26 19 15 8 12 15 20 20 25 29 29 35 42 35 30 38 43 39 36 33 40 50 52 55 53 53 53 49 49 53 57 57 60 62 64 69 73 70 69 71 65 70 71 73
28 16 12 10 14 15 22 24 27 33 29 24 31 37 29 35 31 30 34 32 36 41 49 60 58 52 59 56 51 54 55 62 64 61 61 64 67 67 64 61 63 66 67 66
26 17 12 11 11 17 22 26 30 30 34 29 28 28 31 32 32 33 33 36 38 38 41 47 51 58 50 54 53 55 59 59 60 62 60 56 54 54 57 59 61 61 59 60
21 19 12 10 10 14 18 25 31 31 36 27 28 33 31 29 29 29 33 34 34 32 35 38 49 58 57 58 55 52 51 53 50 49 48 49 52 50 54 55 54 55 59 64
19 17 10 9 12 12 18 19 24 27 36 35 33 34 29 29 29 31 32 34 38 33 36 38 39 43 43 45 47 47 45 42 42 40 41 42 44 46 47 48 53 57 61 62
20 17 12 9 10 15 17 21 22 25 31 30 28 28 30 30 31 32 33 37 37 37 38 38 40 45 45 46 47 37 34 34 37 38 34 40 45 47 49 53 56 60 62 65
21 17 14 13 10 13 16 18 25 27 32 30 34 33 33 34 33 34 34 35 35 36 38 36 36 38 41 43 41 33 31 31 37 37 40 45 48 50 54 57 59 63 66 67
25 18 15 17 15 13 15 19 25 29 31 29 28 28 26 29 30 31 34 36 37 39 39 38 34 34 33 31 25 29 29 32 38 42 46 48 51 54 56 59 63 65 68 70
29 22 19 20 17 15 17 19 21 27 29 29 29 29 27 29 33 33 31 34 38 40 35 34 30 30 28 26 28 32 34 39 44 45 47 50 53 55 58 60 64 68 69 68
35 25 21 20 24 21 15 18 22 26 26 28 29 31 31 30 31 31 28 32 29 28 29 28 29 29 32 33 33 33 39 42 45 47 51 52 53 55 59 64 67 66 68 70
38 26 22 22 24 21 21 20 21 22 26 26 27 31 34 32 31 35 32 30 26 28 29 25 23 24 28 30 33 38 42 46 47 48 50 51 54 58 63 64 65 69 72 75
38 26 23 24 20 22 24 25 23 25 30 31 31 34 34 31 31 30 25 26 25 26 24 25 27 29 30 34 39 44 46 46 47 50 52 55 60 63 66 68 70 72 76 81
36 29 23 22 23 22 26 25 27 25 25 27 27 30 22 26 27 24 25 28 27 25 26 30 30 32 34 37 40 43 47 51 54 55 58 60 65 69 68 69 74 79 84 87
33 31 27 23 20 19 25 25 22 23 23 24 24 22 22 24 26 25 27 26 27 28 29 28 30 34 37 38 41 43 52 55 58 60 62 65 70 70 71 74 80 85 87 89
34 29 30 26 20 20 22 23 24 23 24 23 25 23 24 20 27 28 28 29 31 28 27 31 34 38 38 42 47 52 55 58 61 63 66 70 71 72 74 79 84 87 89 90
35 31 28 27 26 23 22 25 26 22 22 22 24 25 24 25 30 30 33 30 29 30 34 36 38 40 43 48 51 54 58 59 62 66 70 72 74 77 81 85 87 89 90 92
36 33 28 28 27 25 23 29 22 21 22 25 28 32 29 29 29 30 29 29 32 35 37 39 43 45 49 52 54 57 59 62 65 69 72 75 78 82 87 89 90 93 93 96
37 32 30 30 26 25 31 25 25 26 26 27 29 30 28 27 28 30 31 34 36 38 41 44 48 51 53 55 58 60 63 66 70 73 75 79 84 89 91 93 94 96 97 98
39 38 33 31 27 26 29 26 27 26 26 28 30 29 29 27 29 33 36 37 40 43 46 49 52 54 56 59 62 63 66 71 74 77 80 84 89 92 94 96 97 98 99 98
43 40 37 31 29 28 34 27 29 26 26 30 29 29 29 31 32 36 39 42 45 47 49 52 54 57 60 63 65 67 71 75 79 82 86 90 93 96 97 97 99 99 98 104
46 39 35 34 30 32 37 32 31 31 34 30 31 31 31 32 36 39 42 45 48 51 54 55 57 60 63 66 68 71 75 79 83 87 91 94 96 97 99 101 99 100 104 107
45 40 37 36 33 37 38 36 35 37 37 35 34 35 36 38 41 45 48 50 53 55 57 60 64 66 69 72 74 78 81 85 88 92 95 97 99 100 101 100 101 105 108 109
45 45 40 37 37 39 42 41 40 41 41 41 39 39 41 44 47 49 51 53 56 58 61 64 67 70 73 75 78 82 86 90 94 97 98 98 99 100 99 101 106 109 110 110
46 44 41 39 39 40 45 45 43 44 45 46 46 46 47 49 51 53 55 58 59 62 65 68 71 75 78 79 82 85 88 92 95 97 97 97 100 100 102 105 110 109 110 112
46 41 38 40 43 41 44 46 45 46 48 50 51 52 53 54 55 58 60 62 64 68 70 73 76 79 81 83 85 88 92 94 95 96 97 99 100 102 107 111 110 109 112 114
45 42 41 44 45 44 47 47 47 48 50 52 54 56 58 59 60 61 65 68 70 73 76 79 81 82 83 85 88 92 92 94 96 99 100 101 103 108 110 110 109 113 115 116
Wind_Direction
329 346 340 265 207 208 216 225 222 209 211 206 197 197 204 203 208 206 213 216 213 218 224 231 235 240 243 249 246 244 250 255 261 269 270 269 270 279 284 284 288 286 286 286
327 340 353 294 236 218 220 217 215 212 216 219 212 204 210 219 216 216 228 236 237 235 234 229 234 241 244 248 253 255 260 263 270 274 276 277 278 283 283 284 284 283 285 290
323 327 332 335 257 237 221 226 219 222 217 228 227 213 217 217 220 220 227 236 245 256 257 247 240 239 243 249 254 258 263 265 270 271 272 273 275 279 280 281 285 288 291 292
315 316 317 299 278 246 231 218 224 231 219 228 227 227 228 230 240 242 246 250 253 254 260 259 253 248 248 255 257 260 265 267 268 271 275 279 279 281 283 286 290 292 293 292
311 306 311 275 275 262 262 240 237 236 225 225 239 240 238 233 238 249 248 248 239 249 259 262 260 260 258 259 270 279 276 271 271 275 277 280 281 285 288 290 290 291 293 295
307 300 294 278 255 247 244 252 238 233 225 237 239 238 235 241 248 251 252 255 251 247 249 257 261 264 269 273 272 268 262 262 271 274 276 274 287 287 287 287 290 292 294 296
306 296 286 279 269 238 228 235 219 223 228 236 234 243 245 246 249 254 255 261 264 263 262 259 258 260 264 268 265 265 267 267 272 278 281 285 284 284 286 290 291 295 299 301
310 293 274 271 269 244 230 221 220 223 232 241 239 243 252 253 259 261 260 264 268 271 270 268 265 259 268 261 258 271 266 270 276 276 278 281 285 287 290 291 297 299 300 301
314 293 280 271 269 259 255 239 226 230 231 236 249 259 255 258 261 255 252 260 260 263 266 271 271 262 267 266 277 270 275 267 274 281 285 287 289 288 292 297 298 299 301 302
317 294 286 266 261 265 258 254 244 241 244 247 253 258 260 265 267 265 263 265 259 260 262 261 263 269 270 275 274 279 278 280 281 281 284 287 292 296 298 299 301 302 304 305
315 302 288 274 265 270 252 250 260 265 258 253 255 256 260 265 264 265 265 261 260 264 265 265 269 272 274 279 281 280 279 278 281 286 292 296 297 299 301 302 303 305 305 308
311 304 286 280 271 258 248 238 248 251 260 254 254 260 265 267 264 263 267 258 259 264 264 269 271 276 281 282 282 280 280 283 289 293 296 297 299 303 305 305 304 306 309 312
308 301 281 275 267 262 259 248 248 250 260 249 250 257 263 264 265 267 263 259 257 258 262 265 273 280 284 287 289 295 293 295 297 300 301 303 305 306 306 307 309 312 313 315
307 299 282 276 268 262 258 257 256 254 256 259 262 269 261 258 264 264 253 247 253 257 264 276 281 286 288 289 294 298 304 305 304 303 302 303 305 305 309 311 313 314 314 315
305 300 280 277 271 257 259 260 260 261 261 261 265 268 268 262 258 253 243 245 254 264 272 275 277 279 287 299 301 301 302 300 299 299 300 301 304 307 311 313 313 314 314 313
300 299 276 273 269 260 261 263 262 260 271 270 268 267 259 256 252 241 239 250 264 271 273 279 286 293 296 296 297 296 295 297 297 298 300 303 306 310 312 312 313 313 312 312
296 296 277 265 266 267 270 264 275 277 272 272 271 270 269 262 244 243 250 258 263 267 274 279 285 289 291 292 292 294 296 295 297 300 303 305 308 310 311 312 312 312 312 312
292 294 285 267 271 275 269 277 275 278 281 280 272 265 264 253 250 251 256 260 266 273 279 283 287 289 291 293 296 297 297 297 299 302 304 306 308 310 311 312 313 312 314 313
291 290 285 267 271 275 268 270 277 278 279 279 271 268 264 259 252 255 261 269 274 277 282 286 288 291 293 295 296 296 297 299 301 304 306 307 309 311 311 312 313 313 313 313
290 290 286 264 264 262 269 273 278 283 290 274 271 267 264 262 264 269 272 275 279 282 284 285 288 291 293 294 297 298 301 302 303 305 306 308 310 312 313 311 312 312 313 315
288 283 281 265 256 263 265 270 274 279 275 280 272 270 273 274 273 275 278 279 282 283 284 286 288 290 292 296 299 299 300 301 303 305 307 309 310 312 311 312 313 314 314 316
281 286 275 259 261 265 270 272 268 270 274 277 278 274 273 275 277 277 278 278 281 285 289 291 293 295 296 298 299 300 301 302 305 307 308 310 311 312 312 312 313 315 316 315
285 285 280 260 256 259 265 268 270 269 273 275 274 274 275 275 277 280 282 284 287 289 290 291 293 294 296 298 298 300 302 304 306 307 309 310 310 311 311 312 314 314 313 315
280 277 269 263 261 262 265 269 271 271 271 273 275 275 276 277 279 281 283 285 286 287 288 290 293 296 297 298 298 300 302 303 305 307 308 309 309 310 311 312 312 312 315 315
268 267 264 262 260 261 265 268 271 273 274 274 275 276 276 278 279 281 282 284 285 288 292 294 295 296 297 298 301 302 303 304 305 307 307 308 309 310 311 311 312 314 314 316
261 261 265 264 262 261 262 265 269 272 274 275 275 276 277 279 280 281 282 286 288 290 291 292 294 296 298 300 300 301 303 304 306 307 308 308 309 310 310 312 314 314 316 315
Height
10605 10598 10594 10594 10597 10599 10599 10603 10607 10609 10611 10616 10622 10627 10630 10634 10636 10639 10641 10645 10648 10649 10650 10651 10654 10655 10656 10659 10661 10660 10659 10657 10655 10652 10651 10649 10647 10645 10641 10637 10630 10626 10621 10616
10604 10600 10597 10595 10596 10599 10600 10602 10606 10609 10612 10617 10621 10625 10628 10631 10635 10637 10639 10641 10643 10643 10644 10646 10649 10651 10653 10655 10654 10653 10651 10650 10646 10644 10641 10639 10635 10632 10630 10625 10622 10618 10612 10606
10602 10599 10598 10596 10595 10597 10599 10601 10603 10607 10612 10616 10619 10622 10623 10626 10631 10634 10635 10637 10636 10636 10636 10641 10646 10648 10649 10648 10648 10647 10643 10642 10637 10635 10633 10631 10626 10625 10620 10616 10611 10606 10601 10595
10601 10598 10597 10595 10593 10595 10597 10599 10602 10605 10610 10614 10615 10618 10620 10622 10625 10628 10631 10633 10634 10631 10630 10632 10635 10636 10638 10641 10639 10638 10636 10633 10630 10626 10623 10620 10613 10614 10609 10605 10600 10595 10591 10585
10599 10597 10595 10594 10592 10593 10595 10598 10601 10602 10606 10609 10611 10615 10618 10619 10621 10622 10622 10624 10628 10630 10625 10625 10624 10627 10631 10634 10630 10629 10626 10621 10618 10615 10615 10610 10607 10603 10599 10596 10592 10587 10581 10573
10596 10594 10593 10591 10590 10590 10592 10594 10597 10600 10602 10606 10608 10611 10613 10614 10614 10615 10617 10617 10619 10624 10624 10623 10621 10620 10622 10622 10621 10619 10615 10612 10610 10608 10608 10603 10599 10595 10591 10588 10583 10576 10568 10561
10593 10590 10589 10588 10587 10587 10586 10588 10592 10595 10597 10600 10605 10606 10609 10610 10610 10610 10611 10608 10610 10611 10614 10615 10616 10615 10615 10613 10610 10609 10607 10608 10604 10601 10598 10594 10592 10588 10583 10578 10572 10563 10554 10546
10589 10587 10585 10585 10584 10583 10584 10585 10587 10590 10593 10596 10599 10602 10605 10606 10606 10606 10604 10603 10602 10601 10602 10604 10606 10605 10604 10602 10600 10598 10598 10599 10596 10592 10590 10587 10582 10579 10573 10566 10558 10548 10541 10534
10585 10581 10580 10580 10581 10581 10581 10582 10584 10586 10589 10592 10595 10596 10599 10601 10601 10601 10601 10599 10597 10595 10593 10593 10595 10594 10595 10592 10592 10591 10589 10589 10588 10585 10582 10578 10573 10567 10561 10553 10545 10536 10529 10520
10581 10576 10574 10574 10574 10575 10576 10579 10580 10582 10584 10587 10589 10591 10591 10594 10593 10592 10593 10591 10590 10588 10587 10587 10587 10586 10586 10585 10584 10582 10582 10580 10578 10576 10572 10568 10562 10555 10548 10539 10531 10522 10513 10503
10575 10570 10568 10567 10567 10571 10573 10574 10576 10578 10578 10579 10581 10583 10583 10585 10586 10585 10585 10583 10582 10581 10580 10580 10579 10580 10579 10578 10577 10575 10573 10571 10569 10565 10559 10553 10547 10541 10534 10525 10515 10506 10496 10486
10570 10566 10565 10563 10562 10563 10565 10566 10568 10569 10569 10571 10573 10573 10573 10576 10576 10576 10575 10574 10574 10574 10574 10573 10574 10574 10573 10571 10569 10566 10562 10560 10556 10550 10544 10539 10532 10525 10516 10507 10497 10487 10477 10466
10562 10561 10560 10560 10557 10557 10558 10559 10561 10562 10562 10562 10566 10565 10567 10566 10566 10568 10566 10565 10565 10567 10568 10568 10567 10565 10564 10562 10558 10554 10548 10543 10539 10534 10529 10522 10513 10506 10498 10489 10477 10467 10455 10442
10556 10552 10552 10553 10554 10552 10552 10552 10553 10555 10556 10557 10557 10560 10562 10561 10561 10561 10559 10558 10559 10560 10561 10561 10559 10556 10555 10553 10550 10544 10538 10531 10526 10519 10512 10505 10498 10491 10483 10473 10462 10450 10438 10426
10550 10546 10545 10545 10547 10546 10546 10546 10547 10548 10549 10551 10551 10553 10553 10555 10554 10554 10552 10552 10552 10554 10555 10553 10551 10549 10547 10544 10541 10534 10528 10522 10515 10509 10501 10493 10485 10476 10468 10458 10447 10435 10423 10411
10542 10540 10539 10539 10539 10541 10540 10539 10539 10542 10543 10542 10543 10544 10545 10546 10545 10546 10546 10548 10547 10547 10545 10543 10540 10538 10538 10535 10531 10525 10517 10511 10505 10497 10488 10479 10469 10460 10452 10442 10431 10419 10406 10392
10535 10533 10532 10532 10532 10534 10533 10529 10532 10533 10534 10534 10535 10534 10536 10536 10537 10539 10541 10542 10541 10539 10537 10535 10533 10531 10528 10523 10517 10511 10505 10499 10491 10483 10474 10463 10454 10445 10435 10424 10412 10398 10386 10371
10529 10526 10525 10524 10525 10526 10522 10524 10523 10524 10525 10526 10526 10526 10527 10528 10529 10530 10531 10530 10530 10529 10528 10526 10523 10520 10514 10508 10502 10497 10489 10482 10475 10467 10457 10448 10437 10427 10415 10402 10389 10376 10361 10346
10520 10518 10518 10519 10518 10519 10516 10517 10517 10517 10518 10516 10516 10517 10518 10520 10521 10521 10521 10521 10520 10519 10517 10514 10510 10505 10499 10494 10488 10482 10474 10466 10458 10449 10439 10429 10418 10406 10394 10380 10366 10352 10339 10324
10510 10508 10509 10510 10511 10512 10506 10511 10510 10511 10510 10506 10507 10508 10510 10511 10512 10512 10511 10509 10507 10505 10503 10500 10495 10490 10484 10478 10471 10463 10455 10445 10437 10429 10420 10409 10398 10384 10372 10360 10347 10331 10317 10300
10501 10500 10498 10499 10502 10502 10498 10502 10503 10503 10498 10500 10498 10499 10501 10501 10501 10499 10498 10496 10493 10490 10487 10483 10480 10475 10468 10461 10453 10445 10437 10429 10420 10411 10400 10390 10377 10364 10351 10337 10321 10306 10292 10276
10492 10491 10489 10490 10491 10492 10490 10492 10492 10491 10491 10491 10491 10491 10490 10489 10488 10486 10485 10482 10478 10474 10470 10465 10459 10454 10448 10442 10434 10426 10417 10409 10400 10390 10379 10366 10353 10340 10326 10312 10297 10282 10267 10253
10482 10481 10480 10481 10481 10482 10481 10480 10480 10482 10483 10483 10482 10480 10479 10476 10474 10472 10470 10467 10463 10459 10454 10448 10443 10437 10431 10425 10416 10408 10398 10388 10378 10367 10357 10345 10332 10319 10305 10290 10276 10262 10245 10229
10473 10470 10471 10472 10471 10471 10470 10471 10471 10471 10472 10471 10471 10469 10467 10464 10462 10459 10456 10452 10448 10444 10439 10434 10427 10421 10414 10408 10400 10392 10383 10372 10360 10349 10337 10325 10311 10297 10284 10271 10257 10241 10221 10206
10462 10461 10462 10462 10460 10462 10461 10460 10460 10459 10460 10459 10458 10456 10454 10451 10449 10445 10441 10437 10433 10427 10422 10416 10410 10404 10397 10389 10381 10371 10361 10351 10341 10329 10317 10303 10290 10276 10261 10247 10231 10215 10197 10179
10449 10450 10451 10450 10450 10451 10451 10451 10449 10449 10448 10447 10446 10443 10441 10438 10434 10430 10425 10422 10417 10412 10406 10400 10393 10386 10379 10371 10362 10352 10341 10331 10319 10306 10294 10281 10268 10254 10238 10222 10208 10185 10168 10152